Weather History for Thedford, NE

Change the Weather History Date:

Thursday, August 14, 2014

  Actual Average (KLBF) Record (KLBF)
Temperature  
Mean Temperature 76 °F 73 °F  
Max Temperature 90 °F 87 °F 103 °F (1970)
Min Temperature 61 °F 59 °F 47 °F (2002)
Degree Days  
Heating Degree Days 0 0  
Month to date heating degree days 0  
Since 1 June heating degree days 56  
Since 1 July heating degree days 5  
Cooling Degree Days 10 8  
Month to date cooling degree days 123  
Year to date cooling degree days 582  
Since 1 June cooling degree days 554  
Growing Degree Days 26 (Base 50)    
Moisture  
Dew Point 64 °F    
Average Humidity 66    
Maximum Humidity 94    
Minimum Humidity 43    
Precipitation  
Precipitation 0.00 in 0.07 in 1.42 in (1883)
Month to date precipitation 1.27  
Year to date precipitation 15.20  
Snow  
Snow 0.00 in 0.00 in 0.00 in (2002)
Month to date snowfall 0.0  
Since 1 June snowfall 0.0  
Since 1 July snowfall 0.0  
Snow Depth -    
Sea Level Pressure  
Sea Level Pressure 29.98 in    
Wind  
Wind Speed 11 mph (SE)    
Max Wind Speed 18 mph    
Max Gust Speed 24 mph    
Visibility 10 miles    
Events      
T = Trace of Precipitation, MM = Missing Value Source: NWS Daily Summary

Daily Weather History Graph

Daily Weather History Graph

Search for Another Location

Airport:

Trip Planner

Search our weather history database for the weather conditions in past years. The results will help you decide how hot, cold, wet, or windy it might be!

Date:

Astronomy

Aug. 14, 2014 Rise Set
Actual Time 6:49 AM CDT 8:43 PM CDT
Civil Twilight 6:19 AM CDT 9:13 PM CDT
Nautical Twilight 5:42 AM CDT 9:50 PM CDT
Astronomical Twilight 5:02 AM CDT 10:30 PM CDT
Moon 11:02 PM CDT (8/14) 11:33 AM CDT (8/14)
Length of Visible Light 14h 54m
Length of Day
13h 54m
Waning Gibbous, 79% of the Moon is Illuminated
Aug 14
Waning Gibbous
Aug 17
Last Quarter
Aug 25
New
Sep 2
First Quarter
Sep 8
Full

Hourly Weather History & Observations

Time (CDT) Temp. Heat Index Dew Point Humidity Pressure Visibility Wind Dir Wind Speed Gust Speed Precip Events Conditions
12:15 AM 72.5 °F - 61.2 °F 67% 30.05 in 10.0 mi SSE 15.0 mph 19.6 mph N/A   Clear
12:35 AM 72.1 °F - 61.0 °F 68% 30.05 in 10.0 mi SSE 15.0 mph 20.7 mph N/A   Clear
12:55 AM 71.6 °F - 61.0 °F 69% 30.05 in 10.0 mi SSE 15.0 mph - N/A   Clear
1:15 AM 71.2 °F - 61.0 °F 70% 30.05 in 10.0 mi South 16.1 mph 19.6 mph N/A   Scattered Clouds
1:35 AM 70.3 °F - 61.0 °F 72% 30.05 in 10.0 mi SSE 12.7 mph 19.6 mph N/A   Scattered Clouds
1:55 AM 69.6 °F - 61.0 °F 74% 30.04 in 10.0 mi SSE 9.2 mph - N/A   Scattered Clouds
2:15 AM 69.1 °F - 61.0 °F 75% 30.03 in 10.0 mi SSE 12.7 mph - N/A   Mostly Cloudy
2:35 AM 68.7 °F - 60.8 °F 76% 30.03 in 10.0 mi SSE 10.4 mph - N/A   Scattered Clouds
2:55 AM 68.2 °F - 60.8 °F 77% 30.03 in 10.0 mi SSE 10.4 mph - N/A   Clear
3:15 AM 67.6 °F - 60.8 °F 79% 30.03 in 10.0 mi ESE 5.8 mph - N/A   Clear
3:35 AM 65.5 °F - 60.8 °F 85% 30.04 in 10.0 mi East 4.6 mph - N/A   Clear
3:55 AM 64.2 °F - 60.3 °F 87% 30.03 in 10.0 mi SSE 4.6 mph - N/A   Clear
4:15 AM 64.4 °F - 60.6 °F 88% 30.03 in 10.0 mi SE 4.6 mph - N/A   Clear
4:35 AM 63.5 °F - 60.3 °F 89% 30.02 in 10.0 mi Calm Calm - N/A   Clear
4:55 AM 62.6 °F - 59.9 °F 91% 30.02 in 10.0 mi Calm Calm - N/A   Clear
5:15 AM 62.8 °F - 60.6 °F 93% 30.02 in 10.0 mi SE 3.5 mph - N/A   Clear
5:35 AM 62.8 °F - 60.8 °F 93% 30.01 in 10.0 mi SE 4.6 mph - N/A   Clear
5:55 AM 63.7 °F - 61.0 °F 91% 30.01 in 10.0 mi SE 8.1 mph - N/A   Clear
6:15 AM 63.5 °F - 60.8 °F 91% 30.01 in 10.0 mi SE 5.8 mph - N/A   Clear
6:35 AM 62.8 °F - 60.6 °F 93% 30.01 in 10.0 mi SE 4.6 mph - N/A   Clear
6:55 AM 62.8 °F - 60.6 °F 93% 30.01 in 10.0 mi SE 4.6 mph - N/A   Clear
7:15 AM 61.7 °F - 59.9 °F 94% 30.02 in 10.0 mi ESE 3.5 mph - N/A   Clear
7:35 AM 62.8 °F - 60.8 °F 93% 30.02 in 10.0 mi SE 4.6 mph - N/A   Clear
7:55 AM 64.0 °F - 61.2 °F 90% 30.02 in 10.0 mi SSE 5.8 mph - N/A   Clear
8:15 AM 65.7 °F - 61.7 °F 87% 30.02 in 10.0 mi SE 6.9 mph - N/A   Clear
8:35 AM 67.8 °F - 61.7 °F 81% 30.02 in 10.0 mi SE 8.1 mph - N/A   Clear
8:55 AM 69.3 °F - 62.1 °F 78% 30.03 in 10.0 mi SE 8.1 mph - N/A   Clear
9:15 AM 71.1 °F - 62.2 °F 74% 30.02 in 10.0 mi SSE 12.7 mph - N/A   Clear
9:35 AM 72.7 °F - 62.6 °F 71% 30.02 in 10.0 mi SSE 11.5 mph - N/A   Clear
9:55 AM 74.3 °F - 63.1 °F 68% 30.02 in 10.0 mi SSE 12.7 mph - N/A   Clear
10:15 AM 75.0 °F - 63.0 °F 66% 30.01 in 10.0 mi South 11.5 mph 17.3 mph N/A   Clear
10:35 AM 76.5 °F - 63.5 °F 64% 30.01 in 10.0 mi SE 11.5 mph - N/A   Clear
10:55 AM 77.7 °F - 64.0 °F 63% 30.00 in 10.0 mi SSE 11.5 mph - N/A   Clear
11:15 AM 79.0 °F - 64.0 °F 60% 30.00 in 10.0 mi SSE 12.7 mph 16.1 mph N/A   Clear
11:35 AM 80.6 °F 82.3 °F 64.4 °F 58% 29.99 in 10.0 mi SE 12.7 mph - N/A   Clear
11:55 AM 80.6 °F 82.3 °F 64.6 °F 58% 29.99 in 10.0 mi SSE 9.2 mph - N/A   Clear
12:15 PM 82.6 °F 84.3 °F 65.1 °F 55% 29.99 in 10.0 mi SSE 11.5 mph - N/A   Clear
12:35 PM 83.5 °F 85.3 °F 65.5 °F 54% 29.98 in 10.0 mi SE 11.5 mph 17.3 mph N/A   Clear
12:55 PM 85.1 °F 86.6 °F 64.8 °F 50% 29.98 in 10.0 mi SSE 12.7 mph - N/A   Clear
1:15 PM 85.3 °F 86.6 °F 64.4 °F 49% 29.97 in 10.0 mi SE 12.7 mph - N/A   Clear
1:35 PM 86.7 °F 88.4 °F 64.8 °F 48% 29.97 in 10.0 mi SE 15.0 mph - N/A   Clear
1:55 PM 87.1 °F 88.9 °F 65.3 °F 48% 29.96 in 10.0 mi SE 15.0 mph - N/A   Clear
2:15 PM 87.8 °F 89.4 °F 64.9 °F 46% 29.96 in 10.0 mi SSE 15.0 mph 21.9 mph N/A   Clear
2:35 PM 88.9 °F 90.7 °F 64.8 °F 45% 29.96 in 10.0 mi SSE 17.3 mph - N/A   Clear
2:55 PM 89.8 °F 91.4 °F 64.8 °F 43% 29.95 in 10.0 mi SE 12.7 mph 19.6 mph N/A   Clear
3:15 PM 89.6 °F 91.1 °F 64.6 °F 43% 29.95 in 10.0 mi SSE 17.3 mph 23.0 mph N/A   Clear
3:35 PM 90.0 °F 92.0 °F 65.3 °F 44% 29.95 in 10.0 mi SE 17.3 mph 23.0 mph N/A   Clear
3:55 PM 90.5 °F 93.3 °F 66.2 °F 45% 29.94 in 10.0 mi SSE 16.1 mph 21.9 mph N/A   Clear
4:15 PM 90.7 °F 93.6 °F 66.7 °F 45% 29.94 in 10.0 mi SSE 16.1 mph 24.2 mph N/A   Clear
4:35 PM 89.2 °F 92.0 °F 66.7 °F 47% 29.93 in 10.0 mi SSE 17.3 mph 20.7 mph N/A   Clear
4:55 PM 88.2 °F 91.3 °F 67.3 °F 50% 29.93 in 10.0 mi SSE 13.8 mph 21.9 mph N/A   Clear
5:15 PM 90.0 °F 93.2 °F 67.3 °F 47% 29.92 in 10.0 mi SSE 18.4 mph 21.9 mph N/A   Clear
5:35 PM 88.0 °F 91.0 °F 67.3 °F 50% 29.92 in 10.0 mi SE 17.3 mph 24.2 mph N/A   Clear
5:55 PM 88.7 °F 91.9 °F 67.5 °F 49% 29.92 in 10.0 mi SSE 17.3 mph 20.7 mph N/A   Clear
6:15 PM 88.3 °F 92.0 °F 68.0 °F 51% 29.92 in 10.0 mi SSE 17.3 mph 21.9 mph N/A   Clear
6:35 PM 87.3 °F 90.5 °F 67.6 °F 52% 29.93 in 10.0 mi SE 17.3 mph 21.9 mph N/A   Clear
6:55 PM 85.6 °F 88.8 °F 68.0 °F 55% 29.93 in 10.0 mi SSE 17.3 mph 20.7 mph N/A   Clear
7:15 PM 84.7 °F 87.9 °F 67.8 °F 57% 29.92 in 10.0 mi SE 13.8 mph - N/A   Clear
7:35 PM 83.8 °F 86.3 °F 66.7 °F 56% 29.92 in 10.0 mi SSE 13.8 mph 18.4 mph N/A   Clear
7:55 PM 83.3 °F 85.9 °F 67.1 °F 58% 29.92 in 10.0 mi SE 10.4 mph - N/A   Clear
8:15 PM 82.2 °F 84.6 °F 66.6 °F 59% 29.93 in 10.0 mi SE 9.2 mph - N/A   Clear
8:35 PM 81.5 °F 83.6 °F 66.0 °F 59% 29.94 in 10.0 mi SE 12.7 mph - N/A   Clear
8:55 PM 80.8 °F 82.6 °F 65.3 °F 59% 29.94 in 10.0 mi SE 9.2 mph - N/A   Clear
9:15 PM 79.0 °F - 65.7 °F 64% 29.95 in 10.0 mi ESE 5.8 mph - N/A   Clear
9:35 PM 79.3 °F - 64.4 °F 60% 29.95 in 10.0 mi SE 9.2 mph - N/A   Mostly Cloudy
9:55 PM 78.1 °F - 64.0 °F 62% 29.95 in 10.0 mi SE 11.5 mph 18.4 mph N/A   Scattered Clouds
10:15 PM 77.5 °F - 63.1 °F 61% 29.95 in 10.0 mi SE 13.8 mph 19.6 mph N/A   Clear
10:35 PM 76.6 °F - 63.5 °F 64% 29.94 in 10.0 mi SE 10.4 mph - N/A   Clear
10:55 PM 75.6 °F - 64.4 °F 68% 29.94 in 10.0 mi SE 10.4 mph - N/A   Scattered Clouds
11:15 PM 75.0 °F - 64.4 °F 69% 29.94 in 10.0 mi SE 8.1 mph - N/A   Clear
11:35 PM 74.3 °F - 64.6 °F 72% 29.95 in 10.0 mi SE 6.9 mph - N/A   Scattered Clouds
11:55 PM 73.9 °F - 64.8 °F 73% 29.95 in 10.0 mi SE 4.6 mph - N/A   Mostly Cloudy